CZ-2C R/B, 40287

Orbit data source: Space-Track

CZ-2C R/B, 40287 is space debris in SSO originally from a launch on Mon, 27 Oct 2014 UTC launched from the Jiuquan Satellite Launch Center, China (JSC). Debris objects in space refer to the collection of defunct objects orbiting the Earth. Examples of debris include non-operational satellites, rocket bodies, and fragments generated from explosions, collisions, or faulty payload assembly.

Loading next visibility...
Identifier
40287, 2014-066B
Orbit
SSO
Country
Flag of CNCN / PRC
Related business
Manufacturer
CALT
Mission
Spacecraft
Bus & Motor
CZ-2 STAGE 2, Unknown motor
Mass
~3,800 kg wet, ~3,800 kg dry
Launch date (UTC)
2014-10-27 (11 years ago)
Launch vehicle
Unknown
Launch site
Jiuquan Satellite Launch Center, China (JSC)
Object type
Payload
Rocket body
Debris
Shape & HBR
Cyl, 4.2 m
Radar Cross Section
26.048 m², Large (>1 m²)

Expand to show TLE details & history
Last TLE update: 9 hours ago

TLE from 9 hours ago
0 CZ-2C R/B
1 40287U 14066B   26061.93753716  .00000617  00000-0  11661-3 0  9996
2 40287  97.7339  88.1758 0006854 272.1557  87.8863 14.67558493606767
Epoch: 2026-03-02T22:30Z
TLE epoch observation values (Epoch: 2026-03-02T22:30:03.210Z)
Latitude
-0.0001°
Longitude
-50.06134°
Altitude
671.708 km
Speed
7.521 km/s
True Right ascension
05h 52m 42s
True Declination
0° 00' 00"
Sunlit
Object was in daylight at epoch
Visualization orbit readout
Latitude
Unknown
Longitude
Unknown
Altitude
Unknown
Speed
Unknown
Apparent Right ascension
Unknown
Apparent Declination
Unknown
Sunlit
N/A
Visualization observer readout
Local Sidereal Time
11:13:12
Azimuth
Unknown
Elevation
Unknown
Doppler factor
Unknown
Orbital elements
Apogee altitude
670.751 km
Perigee altitude
661.095 km
Semi-major axis
7,044.06 km
Eccentricity
0.00069
Inclination
97.7339°
RAAN
88.1758°
Arg. of periapsis
272.1557°
True anomaly
87.96479°
Mean anomaly
87.8863°
Eccentric anomaly
87.92554°
Mean motion
3.6712 °/min
Orbital period
98.06 mins
BSTAR
0.00011661
Loading maneuver chart data...
Computing Atmospheric mass density...
Loading historical data...
Loading historical data...
Loading historical data...
Loading historical data...
Loading historical data...
Loading historical data...
Loading historical data...
Other satellites on launch #66 in the year 2014 (2014-10-27 UTC)

Documentation

Showing up to 5 results
|